CZ-2D R/B (52910 NORAD) Tracking and Keplerian Element Data

This shows tracking and keplerian element data for the satellite.

Feedback or suggestion? Click here.




ElementValue
Catalog52910
NameCZ-2D R/B
Epoch Orbit288
Epoch Day193.2018027
Epoch Year2022
RAAN161.9321
Inclination34.9931
Eccentricity0.0007442
Argument of Perigee84.3383
Mean Anonmoly275.818
Mean Motion15.24912827
Decay Rate0.00031595
L11 52910U 22068D 22193.20180270 .00031595 00000+0 12340-2 0 9996
L22 52910 34.9931 161.9321 0007442 84.3383 275.8180 15.24912827 2887

Live tracking and technical data element details for CZ-2D R/B (NORAD 52910). CZ-2D R/B can be tracked NOW for your location showing map with azimuth and elevation plus other details from your city location.

Track the satellite on the map from your city or location and see movement details for azimuth, elevation, latitude, longitude, range, height, and movement on the map or in text.







IsCatalogInMostPopularTable: catalog: 52910, numindb: 10
Update: records affected: 1



GetName: 52910 CZ-2D R/B

Hit Count: updated at: Sun, 25 Sep 2022 07:39:34 GMT